Fosston, MN

1:14 PM CDT on August 17, 2017 (GMT -0500)
Fosston Municipal

Weather History for KFSE - April, 2014

Change the Weather History Date:

Wednesday, April 9, 2014

  Actual Average Record
Temperature  
Mean Temperature 52 °F -  
Max Temperature 66 °F 48 °F 81 °F (1977)
Min Temperature 37 °F 26 °F 3 °F (1997)
Degree Days  
Heating Degree Days 14    
Growing Degree Days 2 (Base 50)    
Moisture  
Dew Point 37 °F    
Average Humidity 67    
Maximum Humidity 81    
Minimum Humidity 55    
Precipitation  
Precipitation 0.05 in - - ()
Sea Level Pressure  
Sea Level Pressure 29.57 in    
Wind  
Wind Speed 15 mph (SSW)    
Max Wind Speed 23 mph    
Max Gust Speed 36 mph    
Visibility 10 miles    
Events Rain , Thunderstorm    
Averages and records for this station are not official NWS values.
T = Trace of Precipitation, MM = Missing Value Source: NWS Daily Summary

Daily Weather History Graph

Daily Weather History Graph

Search for Another Location

Airport or City:

Trip Planner

Search our weather history database for the weather conditions in past years. The results will help you decide how hot, cold, wet, or windy it might be!

Date:

Astronomy

Apr. 09, 2014 Rise Set
Actual Time 6:45 AM CDT 8:04 PM CDT
Civil Twilight 6:14 AM CDT 8:36 PM CDT
Nautical Twilight 5:35 AM CDT 9:14 PM CDT
Astronomical Twilight 4:54 AM CDT 9:56 PM CDT
Moon 2:32 PM CDT (4/9) 3:57 AM CDT (4/9)
Length of Visible Light 14h 22m
Length of Day
13h 18m
Waxing Gibbous, 72% of the Moon is Illuminated
Apr 9
Waxing Gibbous
Apr 15
Full
Apr 22
Last Quarter
Apr 29
New
May 6
First Quarter

Hourly Weather History & Observations

Time (CDT) Temp. Windchill Dew Point Humidity Pressure Visibility Wind Dir Wind Speed Gust Speed Precip Events Conditions
12:15 AM 37.4 °F 29.8 °F 28.4 °F 70% 29.82 in 10.0 mi SSE 11.5 mph - N/A   Overcast
12:35 AM 37.4 °F 29.3 °F 28.4 °F 70% 29.81 in 10.0 mi SSE 12.7 mph - N/A   Scattered Clouds
12:55 AM 37.4 °F 28.5 °F 28.4 °F 70% 29.80 in 10.0 mi SSE 15.0 mph - N/A   Scattered Clouds
1:15 AM 37.4 °F 29.3 °F 28.4 °F 70% 29.79 in 10.0 mi SSE 12.7 mph 18.4 mph N/A   Mostly Cloudy
1:35 AM 37.4 °F 28.5 °F 30.2 °F 75% 29.79 in 10.0 mi South 15.0 mph - N/A   Mostly Cloudy
1:55 AM 37.4 °F 27.8 °F 30.2 °F 75% 29.78 in 10.0 mi South 17.3 mph - N/A   Overcast
2:15 AM 39.2 °F 30.5 °F 30.2 °F 70% 29.76 in 10.0 mi South 16.1 mph - N/A   Overcast
2:35 AM 39.2 °F 30.5 °F 30.2 °F 70% 29.75 in 10.0 mi South 16.1 mph - N/A   Overcast
2:55 AM 39.2 °F 30.8 °F 30.2 °F 70% 29.74 in 10.0 mi South 15.0 mph - N/A   Overcast
3:15 AM 37.4 °F 28.2 °F 30.2 °F 75% 29.72 in 10.0 mi South 16.1 mph - N/A   Mostly Cloudy
3:35 AM 39.2 °F 30.2 °F 30.2 °F 70% 29.71 in 10.0 mi South 17.3 mph - N/A   Scattered Clouds
3:55 AM 37.4 °F 27.8 °F 28.4 °F 70% 29.69 in 10.0 mi South 17.3 mph - N/A   Scattered Clouds
4:15 AM 39.2 °F 30.5 °F 28.4 °F 65% 29.68 in 10.0 mi South 16.1 mph - N/A   Scattered Clouds
4:35 AM 39.2 °F 29.8 °F 28.4 °F 65% 29.67 in 10.0 mi South 18.4 mph 24.2 mph N/A   Scattered Clouds
4:55 AM 37.4 °F 28.2 °F 28.4 °F 70% 29.66 in 10.0 mi South 16.1 mph 20.7 mph N/A   Scattered Clouds
5:15 AM 37.4 °F 28.2 °F 28.4 °F 70% 29.65 in 10.0 mi South 16.1 mph - N/A   Scattered Clouds
5:35 AM 39.2 °F 30.5 °F 28.4 °F 65% 29.64 in 10.0 mi South 16.1 mph 21.9 mph N/A   Scattered Clouds
5:55 AM 39.2 °F 29.6 °F 26.6 °F 61% 29.63 in 10.0 mi South 19.6 mph 27.6 mph N/A   Clear
6:15 AM 39.2 °F 29.6 °F 28.4 °F 65% 29.63 in 10.0 mi South 19.6 mph 24.2 mph N/A   Clear
6:35 AM 39.2 °F 29.6 °F 28.4 °F 65% 29.62 in 10.0 mi South 19.6 mph 25.3 mph N/A   Clear
6:55 AM 37.4 °F 27.2 °F 28.4 °F 70% 29.61 in 10.0 mi South 19.6 mph 23.0 mph N/A   Clear
7:15 AM 37.4 °F 28.5 °F 28.4 °F 70% 29.62 in 10.0 mi South 15.0 mph - N/A   Clear
7:35 AM 39.2 °F 29.8 °F 28.4 °F 65% 29.60 in 10.0 mi South 18.4 mph - N/A   Clear
7:55 AM 39.2 °F 30.8 °F 28.4 °F 65% 29.60 in 10.0 mi South 15.0 mph - N/A   Clear
8:15 AM 39.2 °F 30.8 °F 30.2 °F 70% 29.60 in 10.0 mi SSW 15.0 mph - N/A   Clear
8:35 AM 41.0 °F 32.8 °F 30.2 °F 65% 29.60 in 10.0 mi South 16.1 mph 20.7 mph N/A   Clear
8:55 AM 42.8 °F 34.5 °F 32.0 °F 66% 29.59 in 10.0 mi South 18.4 mph - N/A   Clear
9:15 AM 42.8 °F 35.4 °F 33.8 °F 70% 29.59 in 10.0 mi SSW 15.0 mph - N/A   Clear
9:35 AM 44.6 °F 36.9 °F 33.8 °F 66% 29.58 in 10.0 mi SSW 18.4 mph 26.5 mph N/A   Clear
9:55 AM 44.6 °F 37.4 °F 33.8 °F 66% 29.58 in 10.0 mi SSW 16.1 mph - N/A   Clear
10:15 AM 46.4 °F 39.5 °F 35.6 °F 66% 29.57 in 10.0 mi SSW 17.3 mph - N/A   Clear
10:35 AM 46.4 °F 39.5 °F 35.6 °F 66% 29.56 in 10.0 mi SSW 17.3 mph - N/A   Clear
10:55 AM 48.2 °F - 37.4 °F 66% 29.55 in 10.0 mi South 18.4 mph - N/A   Clear
11:15 AM 48.2 °F - 37.4 °F 66% 29.54 in 10.0 mi SSW 19.6 mph - N/A   Clear
11:35 AM 50.0 °F - 37.4 °F 62% 29.54 in 10.0 mi SSW 20.7 mph - N/A   Clear
11:55 AM 51.8 °F - 39.2 °F 62% 29.53 in 10.0 mi South 17.3 mph - N/A   Clear
12:16 PM 51.8 °F - 39.2 °F 62% 29.52 in 10.0 mi SSW 18.4 mph - N/A   Clear
12:35 PM 53.6 °F - 41.0 °F 62% 29.52 in 10.0 mi SSW 17.3 mph - N/A   Clear
12:55 PM 55.4 °F - 42.8 °F 63% 29.50 in 10.0 mi South 16.1 mph - N/A   Clear
1:15 PM 55.4 °F - 42.8 °F 63% 29.49 in 10.0 mi South 18.4 mph - N/A   Clear
1:35 PM 57.2 °F - 42.8 °F 59% 29.49 in 10.0 mi SSW 20.7 mph - N/A   Clear
1:55 PM 57.2 °F - 44.6 °F 63% 29.48 in 10.0 mi South 18.4 mph 24.2 mph N/A   Clear
2:16 PM 59.0 °F - 44.6 °F 59% 29.47 in 10.0 mi SSW 21.9 mph 26.5 mph N/A   Clear
2:35 PM 59.0 °F - 44.6 °F 59% 29.46 in 10.0 mi SSW 20.7 mph - N/A   Clear
2:55 PM 60.8 °F - 44.6 °F 55% 29.46 in 10.0 mi SSW 19.6 mph 25.3 mph N/A   Clear
3:16 PM 60.8 °F - 44.6 °F 55% 29.45 in 10.0 mi SSW 19.6 mph - N/A   Clear
3:35 PM 62.6 °F - 46.4 °F 55% 29.45 in 10.0 mi SSW 18.4 mph 25.3 mph N/A   Clear
3:55 PM 62.6 °F - 46.4 °F 55% 29.44 in 10.0 mi SSW 20.7 mph - N/A   Clear
4:16 PM 64.4 °F - 48.2 °F 56% 29.43 in 10.0 mi SSW 16.1 mph 21.9 mph N/A   Clear
4:35 PM 62.6 °F - 46.4 °F 55% 29.43 in 10.0 mi SSW 16.1 mph - N/A   Clear
4:55 PM 62.6 °F - 46.4 °F 55% 29.42 in 10.0 mi SSW 13.8 mph - N/A   Clear
5:15 PM 62.6 °F - 48.2 °F 59% 29.41 in 10.0 mi SSW 11.5 mph - N/A   Scattered Clouds
5:35 PM 62.6 °F - 48.2 °F 59% 29.41 in 10.0 mi SSW 11.5 mph - N/A   Scattered Clouds
5:55 PM 66.2 °F - 51.8 °F 60% 29.41 in 10.0 mi SSW 8.1 mph - N/A   Clear
6:15 PM 64.4 °F - 50.0 °F 59% 29.41 in 10.0 mi SW 6.9 mph - N/A   Clear
6:35 PM 62.6 °F - 50.0 °F 63% 29.40 in 10.0 mi SW 5.8 mph - N/A   Scattered Clouds
6:55 PM 60.8 °F - 48.2 °F 63% 29.40 in 10.0 mi WNW 5.8 mph - N/A Thunderstorm Mostly Cloudy
7:15 PM 55.4 °F - 46.4 °F 72% 29.47 in 7.0 mi WNW 23.0 mph 35.7 mph 0.04 in Rain , Thunderstorm Heavy Thunderstorms and Rain
7:35 PM 53.6 °F - 44.6 °F 72% 29.46 in 10.0 mi NW 10.4 mph - 0.05 in   Overcast
7:55 PM 51.8 °F - 44.6 °F 76% 29.47 in 10.0 mi NW 15.0 mph 19.6 mph 0.05 in   Mostly Cloudy
8:15 PM 51.8 °F - 42.8 °F 71% 29.49 in 10.0 mi NW 18.4 mph 21.9 mph N/A   Scattered Clouds
8:35 PM 48.2 °F - 41.0 °F 76% 29.51 in 10.0 mi NW 13.8 mph 23.0 mph N/A   Scattered Clouds
8:55 PM 46.4 °F 39.0 °F 39.2 °F 76% 29.53 in 10.0 mi NW 19.6 mph - N/A   Scattered Clouds
9:15 PM 46.4 °F 40.1 °F 37.4 °F 71% 29.55 in 10.0 mi NW 15.0 mph 26.5 mph N/A   Clear
9:35 PM 44.6 °F 38.8 °F 37.4 °F 76% 29.56 in 10.0 mi NW 11.5 mph - N/A   Clear
9:55 PM 44.6 °F 41.4 °F 37.4 °F 76% 29.58 in 10.0 mi West 5.8 mph - N/A   Clear
10:15 PM 42.8 °F 38.0 °F 37.4 °F 81% 29.58 in 10.0 mi WNW 8.1 mph - N/A   Clear
10:35 PM 42.8 °F 38.0 °F 37.4 °F 81% 29.59 in 10.0 mi WNW 8.1 mph - N/A   Clear
10:55 PM 41.0 °F 34.3 °F 35.6 °F 81% 29.60 in 10.0 mi WNW 11.5 mph 20.7 mph N/A   Clear
11:15 PM 41.0 °F 34.7 °F 33.8 °F 76% 29.60 in 10.0 mi WNW 10.4 mph - N/A   Clear
11:35 PM 39.2 °F 31.6 °F 33.8 °F 81% 29.61 in 10.0 mi WNW 12.7 mph 18.4 mph N/A   Clear
11:55 PM 39.2 °F 31.6 °F 32.0 °F 75% 29.62 in 10.0 mi WNW 12.7 mph - N/A   Clear